Regional Weather Roundup
Issued by NWS

Home | Current Version | Previous Version | Graphics & Text | Print | Product List | Glossary On
Versions: 1 2 3 4 5 6 7 8 9 10 11 12 13 14 15 16 17 18 19 20 21 22 23 24 25 26 27 28 29 30 31 32 33 34 35 36 37 38 39 40 41 42 43 44 45 46 47 48 49 50
000
ASUS45 KPSR 220710
RWRAZ

ARIZONA HOURLY REGIONAL WEATHER ROUNDUP
NATIONAL WEATHER SERVICE PHOENIX AZ
1200 AM MST WED NOV 22 2017

NOTE: FAIR INDICATES FEW OR NO CLOUDS BELOW 12,000 FEET WITH NO
SIGNIFICANT WEATHER AND/OR OBSTRUCTIONS TO VISIBILITY.

AZZ001>003-036-220800-
NORTHWEST ARIZONA

CITY           SKY/WX    TMP DP  RH WIND       PRES   REMARKS
BULLHEAD CITY  MOCLDY    73  12   9 NE26G32   30.11S
KINGMAN        PTCLDY    54  22  28 E8        30.27S
$$

AZZ004>008-015-016-018-220800-
NORTH CENTRAL ARIZONA

CITY           SKY/WX    TMP DP  RH WIND       PRES   REMARKS
GRAND CANYON   PTCLDY    33  22  63 CALM      30.45R
WILLIAMS       CLEAR     41  27  56 SE8       30.41S
PRESCOTT       CLEAR     44  29  55 SW3       30.33S
FLAGSTAFF      CLEAR     45  27  49 NE8       30.43S
PAYSON         CLEAR     57  25  28 NE6       30.33S
PAGE           PTCLDY    47  22  37 NW3       30.39R
$$

AZZ009>014-017-220800-
NORTHEAST ARIZONA

CITY           SKY/WX    TMP DP  RH WIND       PRES   REMARKS
WINSLOW        PTCLDY    38  15  39 SW3       30.38R
SAINT JOHNS    PTCLDY    42  20  41 S9        30.39R
WINDOW ROCK    CLEAR     32  21  64 CALM      30.42F
SHOW LOW       PTCLDY    39  14  35 E5        30.43R
$$

AZZ540-542>544-546-548-220800-
GREATER PHOENIX AREA

CITY           SKY/WX    TMP DP  RH WIND       PRES   REMARKS
PHOENIX        PTCLDY    64  33  31 CALM      30.07R
BUCKEYE        CLEAR     57  18  21 NE6       30.08F
LUKE AFB       CLEAR     57  36  44 CALM      30.07S
DEER VALLEY    CLEAR     60  25  26 CALM      30.08S
SCOTTSDALE     CLEAR     62  31  31 CALM      30.10S
MESA-GATEWAY   PTCLDY    55  25  30 E5        30.10S
$$

AZZ539-553-220800-
SOUTHWEST MARICOPA COUNTY AND PINAL COUNTY

CITY           SKY/WX    TMP DP  RH WIND       PRES   REMARKS
CASA GRANDE    NOT AVBL
$$

AZZ503-504-507>509-220800-
SOUTHEAST ARIZONA

CITY           SKY/WX    TMP DP  RH WIND       PRES   REMARKS
TUCSON         CLEAR     57  22  25 SE5       30.17S
DAVIS-MONTHAN  PTCLDY    55  21  27 SE7       30.14F
NOGALES        CLEAR     50  22  33 E6        30.21R
SIERRA VISTA   PTCLDY    55  16  21 CALM      30.26S
DOUGLAS        PTCLDY    46  16  30 VRB3      30.23S
SAFFORD        CLEAR     57  14  18 S10       30.22R
$$

AZZ532-220800-
SOUTHWEST ARIZONA

CITY           SKY/WX    TMP DP  RH WIND       PRES   REMARKS
YUMA           MOCLDY    71  17  12 N7        30.05S
$$

CAZ041-043-047-048-061-525>527-560>570-220800-
SOUTHERN CALIFORNIA

CITY           SKY/WX    TMP DP  RH WIND       PRES   REMARKS
DOWNTOWN L.A.  CLEAR     69  35  28 CALM      30.02F
L.A. AIRPORT   CLEAR     69  50  50 CALM      30.03S
SAN DIEGO      CLEAR     64  43  46 N3        30.06R
BURBANK        CLEAR     75  27  17 CALM      30.06S
ONTARIO        PTCLDY    67  37  33 N6        30.08S
RIVERSIDE      CLEAR     68  36  30 E6        30.08S
PALM SPRINGS   CLEAR     68  32  26 NW5       30.12S
EL CENTRO NAS  PTCLDY    58  33  39 W5        30.07F
IMPERIAL       PTCLDY    59  41  51 W8        30.05F
BLYTHE         PTCLDY    64  13  13 NW3       30.09R
$$

NVZ020-UTZ003-220800-
SOUTHERN NEVADA-UTAH

CITY           SKY/WX    TMP DP  RH WIND       PRES   REMARKS
LAS VEGAS      MOCLDY    60  30  32 CALM      30.24S
SALT LAKE CITY MOCLDY    49  41  74 S7        30.38R
$$

NMZ009-TXZ055-220800-
NEW MEXICO-WEST TEXAS

CITY           SKY/WX    TMP DP  RH WIND       PRES   REMARKS
ALBUQUERQUE    CLOUDY    49  22  34 NE10      30.40R
EL PASO        PTCLDY    55  21  26 SE6       30.35R
$$


........................KEY........................
SKY/WX - SKY CONDITION/WEATHER
TMP    - TEMPERATURE IN FAHRENHEIT
DP     - DEW POINT IN FAHRENHEIT
RH     - RELATIVE HUMIDITY IN PERCENT
WIND   - DIRECTION AND SPEED IN MILES PER HOUR (MPH)
VRB    - VARIABLE WIND DIRECTION
PRES   - MEAN SEA LEVEL PRESSURE IN INCHES OF MERCURY
         F - FALLING PRESSURE   R - RISING PRESSURE
         S - STEADY PRESSURE
VSB    - VISIBILITY IN MILES
HX     - HEAT INDEX IN FAHRENHEIT
WCI    - WIND CHILL INDEX IN FAHRENHEIT
TC     - TEMPERATURE IN CELSIUS WHICH IS ALSO KNOWN AS
         TEMPERATURE IN CENTIGRADE
AFB    - AIR FORCE BASE
         LUKE AFB IS LUKE AIR FORCE BASE
         DAVIS-MONTHAN IS DAVIS-MONTHAN AIR FORCE BASE
NAS    - NAVAL AIR STATION
         EL CENTRO NAS IS EL CENTRO NAVAL AIR STATION
N/A    - NOT AVAILABLE




USA.gov is the U.S. government's official web portal to all federal, state and local government web resources and services.